STARLINK-3071, 49147

Orbit data source: Space-Track

STARLINK-3071, 49147 is a payload satellite owned by SpaceX/Seattle (US) in LEO that was launched on Tue, 14 Sep 2021 UTC via an FALCON 9 launch vehicle from the Air Force Western Test Range (AFWTR). Payload-class satellites include a variety of spacecraft equipped with specific instruments for various scientific and technological missions. These include communications satellites like Starlink; space stations such as the ISS; scientific satellites like the Hubble; Earth observation satellites from companies like Planet Labs, Umbra, and HawkEye 360; GPS; miniature CubeSats for education and research; and military/defense satellites.

Loading next visibility...
Identifier
49147, 2021-082T
Orbit
LEO
Country
Flag of USUS
Related business
Manufacturer
SpaceX/Seattle
Mission
Operational Commercial Communications
Bus & Motor
STARLINK, Unknown motor
Mass
297 kg wet, ~275 kg dry
Launch date (UTC)
2021-09-14 (4 years ago)
Launch vehicle
FALCON 9
Launch site
Air Force Western Test Range (AFWTR)
Object type
Payload
Rocket body
Debris
Shape & HBR
Box + 1 Pan, 10.1 m
Radar Cross Section
13.562 m², Large (>1 m²)

Expand to show TLE details & history
Last TLE update: 18 hours ago

TLE from 18 hours ago
0 STARLINK-3071
1 49147U 21082T   26035.28344118  .00000044  00000-0  11498-4 0  9990
2 49147  70.0013 338.6872 0002825 269.3676  90.7159 14.98331082241963
Epoch: 2026-02-04T06:48Z
TLE epoch observation values (Epoch: 2026-02-04T06:48:09.317Z)
Latitude
-0.00009°
Longitude
102.19611°
Altitude
574.502 km
Speed
7.574 km/s
True Right ascension
22h 34m 44s
True Declination
0° 00' 00"
Sunlit
Object was in daylight at epoch
Visualization orbit readout
Latitude
Unknown
Longitude
Unknown
Altitude
Unknown
Speed
Unknown
Apparent Right ascension
Unknown
Apparent Declination
Unknown
Sunlit
N/A
Visualization observer readout
Local Sidereal Time
03:08:42
Azimuth
Unknown
Elevation
Unknown
Doppler factor
Unknown
Orbital elements
Apogee altitude
571.963 km
Perigee altitude
568.038 km
Semi-major axis
6,948.138 km
Eccentricity
0.00028
Inclination
70.0013°
RAAN
338.6872°
Arg. of periapsis
269.3676°
True anomaly
90.74827°
Mean anomaly
90.7159°
Eccentric anomaly
90.73208°
Mean motion
3.74749 °/min
Orbital period
96.06 mins
BSTAR
0.000011498
Loading maneuver chart data...
Computing Atmospheric mass density...
Loading historical data...
Loading historical data...
Loading historical data...
Loading historical data...
Loading historical data...
Loading historical data...
Loading historical data...

Documentation

Showing up to 5 results
|